Voltar ao catálogo

FENGYUN 1C DEB

AtivoSSO
NORAD 29938·DEBRIS·🇨🇳 China

Lançado May 10, 1999 de Taiyuan Satellite Launch Center

Loading…

Próximas Passagens (próximas 24 horas)

TLE

AtualizadoSource: Space-Track

Época: Sep 14, 2026, 09:41 UTC

1 29938U 99025JL  26257.40390535 -.00000011  00000-0  19106-4 0  9991
2 29938  98.8248 245.7207 0032342 253.6151 270.8928 14.07588198  9327

Acompanhe FENGYUN 1C DEB em tempo real com AllMySat

Download on the App Store